SCP
0 0 0 0 0 0 0 0 0 0 1 1 1 1 1 1 1 1 1 1 1 1 1 1 1 1 1 1 1 1 1 1 1 1 1 1 1 1 1 1 0 0 0
0 0 0 0 0 0 0 0 0 0 0 0 0 1 1 1 1 1 1 1 1 1 1 1 1 1 1 1 1 1 1 1 1 1 1 1 1 1 1 1 1 1 0
0 0 0 0 1 0 0 0 0 0 0 0 0 0 1 1 1 1 1 1 1 1 1 1 2 2 1 1 1 1 1 1 1 1 1 1 1 1 1 1 1 1 1
0 1 1 1 1 1 0 0 0 0 0 0 0 0 1 1 1 1 1 1 1 1 1 1 2 2 2 1 1 1 1 1 1 1 1 0 0 1 1 1 1 1 1
1 1 1 1 1 1 1 1 1 1 0 0 0 0 1 1 1 1 1 1 1 1 1 1 1 2 2 2 1 1 1 1 1 1 1 0 0 1 1 1 1 1 1
1 1 1 1 1 1 1 1 1 1 1 1 1 1 1 1 1 1 1 1 1 1 1 1 1 1 2 2 2 2 1 1 1 1 0 0 0 1 1 1 1 1 1
1 1 1 1 2 2 1 1 1 1 1 1 1 1 1 1 1 1 1 1 1 1 1 1 1 1 1 2 2 2 2 2 1 1 1 0 0 1 1 1 1 1 1
1 1 1 2 2 2 2 1 1 1 1 1 1 1 1 1 1 1 1 1 1 1 1 1 1 1 2 2 2 2 2 2 1 1 1 0 0 1 1 1 1 1 1
1 1 1 2 2 2 2 2 2 1 1 1 1 1 1 1 1 1 1 0 1 1 1 1 1 1 2 2 2 1 1 1 1 0 0 0 1 1 1 1 1 1 1
1 1 1 2 2 3 3 2 2 2 1 2 2 1 1 1 1 1 0 0 0 0 1 1 1 1 1 2 1 1 1 0 0 0 0 0 1 1 1 1 1 1 1
1 1 1 2 3 3 3 3 3 2 2 2 2 2 1 1 1 1 1 0 0 0 0 1 1 1 1 1 1 1 0 0 0 0 0 1 1 1 1 2 1 1 1
1 1 2 2 3 3 3 3 3 2 2 2 2 2 1 1 1 1 1 0 0 0 0 0 0 0 1 1 1 0 0 0 0 0 1 1 1 1 1 2 2 2 1
1 1 2 2 3 3 3 3 3 2 2 2 2 2 2 1 1 1 1 1 0 0 0 0 0 0 0 0 0 0 0 0 0 1 1 2 2 2 2 2 2 2 2
1 1 2 2 3 3 3 3 3 3 2 2 2 2 2 2 1 1 1 1 0 0 0 0 0 0 0 0 0 0 0 0 0 1 1 2 2 2 2 2 2 2 2
1 1 2 2 3 3 3 3 3 3 3 2 3 3 2 2 1 1 1 1 1 0 0 0 0 0 0 0 0 0 0 0 1 1 2 2 2 3 3 2 2 2 1
0 1 1 2 3 3 3 3 3 3 3 3 3 3 2 2 1 1 1 1 1 0 0 0 0 0 0 0 0 0 0 0 1 1 1 2 2 3 3 2 2 1 1
0 0 1 1 2 3 4 3 3 3 3 3 3 2 2 2 1 1 1 1 1 1 0 0 0 0 0 0 0 0 0 0 0 1 1 1 2 2 2 1 1 1 1
0 0 0 1 2 3 4 4 4 3 3 3 2 2 2 2 1 1 1 1 1 1 1 0 0 0 0 0 0 0 0 0 0 0 0 0 0 1 1 1 1 1 1
0 0 0 0 1 2 3 4 4 4 3 3 2 2 2 2 1 1 1 1 1 1 1 0 0 0 0 0 0 0 0 0 0 0 0 0 0 0 0 0 0 0 1
0 0 0 0 1 2 3 4 4 4 4 3 2 2 1 1 1 1 1 1 1 0 0 0 0 0 0 0 0 0 0 0 0 0 0 0 0 0 0 0 0 0 0
0 0 0 0 1 2 2 3 4 4 4 3 3 2 1 1 1 1 1 1 0 0 0 0 0 0 0 0 0 0 0 0 0 0 0 0 0 0 0 0 0 0 0
0 0 0 0 0 1 2 2 2 3 3 3 3 2 1 1 1 1 1 1 0 0 0 0 0 0 0 0 0 0 0 0 0 0 0 0 0 0 0 0 0 0 0
0 0 0 0 0 0 1 1 1 2 2 2 2 2 1 1 1 1 0 0 0 0 0 0 0 0 0 0 0 0 0 0 0 0 0 0 0 0 0 0 0 0 0
1 0 0 0 0 0 0 0 0 1 1 1 1 1 1 1 1 0 0 0 0 0 0 0 0 0 0 0 0 0 0 0 0 0 0 0 0 0 0 0 0 0 0
1 1 0 0 0 0 0 0 0 0 0 0 0 1 0 0 0 0 0 0 0 0 0 0 0 0 0 0 0 0 0 0 0 0 0 0 0 0 0 0 0 0 0
1 1 1 0 0 0 0 0 0 0 0 0 0 0 0 0 0 0 0 0 0 0 0 0 0 0 0 0 0 0 0 0 0 0 0 0 0 0 0 0 0 0 0
Wind_Speed
2 3 2 3 4 5 6 6 7 7 7 8 8 7 8 8 8 9 8 8 7 7 7 7 7 6 6 6 6 6 6 6 7 6 6 6 5 5 6 6 5 3 5
1 1 1 3 4 5 6 7 7 8 8 8 8 8 8 8 8 8 8 8 8 8 7 7 6 6 6 6 6 6 6 7 7 7 6 5 5 5 5 5 5 3 4
1 1 1 3 5 6 7 7 7 7 8 8 8 8 8 8 8 8 8 8 8 8 8 8 7 7 6 6 6 7 7 7 7 7 6 3 3 4 4 5 4 4 4
1 1 1 4 5 7 7 7 7 7 8 8 8 8 8 9 9 8 8 9 9 8 8 8 7 7 7 7 7 7 7 7 7 7 4 3 2 4 5 4 4 4 4
1 1 1 5 6 7 8 8 8 8 8 8 8 8 8 8 9 9 9 9 9 8 8 8 7 7 7 7 7 7 7 7 7 5 3 2 2 4 5 5 4 4 4
2 1 2 6 6 7 8 8 9 9 9 8 8 8 8 8 9 9 9 8 8 8 8 7 7 7 7 7 7 7 7 7 5 3 3 2 2 4 5 5 5 4 5
2 2 2 5 6 7 8 9 9 10 10 9 9 8 8 8 8 8 8 8 8 8 8 7 7 7 7 8 8 7 7 6 4 3 2 2 3 5 6 6 6 6 6
3 3 4 5 6 7 8 8 9 9 9 9 9 9 9 8 8 8 7 7 7 7 8 8 8 8 8 7 7 8 7 6 4 3 2 2 4 5 6 6 6 6 7
5 4 4 4 4 6 7 7 7 8 9 9 10 9 10 10 9 8 8 7 7 7 8 8 8 8 8 8 8 7 7 7 3 2 2 2 4 5 6 6 6 7 7
5 4 4 4 4 4 4 6 7 8 8 9 9 9 10 10 9 9 8 8 7 8 8 8 8 8 8 8 8 8 7 5 3 2 1 2 6 6 6 6 6 7 7
4 3 4 4 4 4 4 5 6 7 8 8 7 9 8 5 5 5 8 9 8 8 8 8 8 9 8 8 8 8 6 2 2 2 2 5 6 6 7 7 7 7 8
1 2 2 2 3 3 3 3 3 3 4 4 4 5 4 4 4 5 8 10 10 10 9 9 9 8 6 4 5 6 3 3 3 3 3 8 8 8 7 7 8 7 7
1 1 1 1 2 3 2 3 2 2 3 3 4 4 3 3 3 4 3 4 5 7 5 7 7 5 5 4 4 4 5 4 3 3 4 8 9 9 9 9 8 8 7
1 1 1 2 2 2 2 2 2 2 2 2 3 3 3 2 3 3 3 3 3 3 4 4 4 5 5 5 6 6 6 4 4 3 4 9 9 9 10 10 9 8 7
1 1 1 2 2 2 2 2 3 2 2 2 3 3 3 2 3 3 3 3 3 3 3 3 4 5 5 5 6 6 6 6 5 5 4 9 10 10 10 10 9 9 8
1 1 1 2 2 3 2 2 2 2 2 3 3 3 3 2 2 2 3 3 3 3 3 3 4 4 4 4 6 6 6 5 5 5 4 6 10 10 10 10 10 8 8
1 1 1 2 3 3 3 2 2 2 3 3 2 3 3 3 3 2 3 3 2 2 3 3 4 4 4 5 5 5 5 5 5 5 5 4 5 8 10 10 10 9 9
2 2 1 2 4 3 3 2 2 2 3 2 2 2 3 3 3 3 3 3 2 2 3 3 3 4 4 4 4 4 4 4 5 5 5 5 5 5 7 11 11 10 10
2 2 2 3 4 3 3 3 3 3 3 2 2 2 2 3 3 3 3 2 3 3 3 3 3 3 3 3 3 4 4 4 4 5 6 6 6 5 5 8 12 12 12
2 2 3 3 3 3 3 3 3 3 3 2 2 2 3 3 3 3 3 3 3 3 3 3 4 4 3 3 4 5 4 4 4 5 5 5 5 6 6 6 6 7 12
2 2 2 3 2 3 2 2 2 1 1 2 2 3 3 3 3 3 3 3 3 3 3 3 2 4 3 2 3 3 4 4 5 4 4 4 5 5 5 6 5 4 5
2 2 2 2 2 2 2 2 2 2 1 1 1 3 3 2 2 3 3 2 2 3 3 3 2 2 2 3 2 2 2 3 4 4 4 4 4 4 5 6 5 5 4
1 2 2 2 2 2 2 3 3 3 2 2 2 2 2 2 3 3 3 2 2 2 2 2 2 3 2 2 2 2 2 0 2 3 3 4 4 4 4 4 5 5 5
2 1 1 2 2 2 3 3 3 2 1 1 0 1 2 2 2 2 2 2 2 2 2 1 2 2 2 1 2 2 1 2 2 1 2 3 3 4 4 4 4 5 5
2 2 2 2 2 2 2 3 3 2 1 1 1 2 2 2 2 2 2 2 2 2 2 2 2 2 2 2 1 1 2 2 2 2 1 3 3 3 3 3 3 3 4
2 2 2 2 2 2 2 2 3 3 2 2 1 1 1 1 1 1 2 2 2 2 2 2 2 2 2 2 1 1 1 1 1 1 1 1 2 2 2 2 3 3 3
Wind_Direction
300 300 338 60 61 62 63 68 71 72 71 70 72 74 77 81 84 84 84 85 88 85 85 82 85 91 91 91 88 91 90 89 84 82 82 83 84 86 84 82 81 74 81
239 295 46 67 70 70 70 70 73 76 75 73 73 73 75 76 81 84 82 83 84 81 79 78 81 86 87 82 81 85 89 87 83 79 74 69 72 80 81 83 87 87 91
60 9 79 81 78 75 73 71 72 77 78 74 73 73 75 76 77 79 79 79 82 79 74 72 71 76 80 78 78 80 85 86 82 77 65 45 53 79 82 83 83 83 85
91 56 86 90 78 74 73 71 73 77 78 75 73 74 76 76 77 78 77 76 75 73 71 70 70 74 76 75 75 77 82 85 81 75 56 37 30 73 76 81 81 77 80
52 42 89 88 79 75 74 73 75 78 80 80 77 78 77 77 78 80 78 76 74 71 68 68 72 74 74 74 71 71 77 84 77 67 55 41 26 65 73 74 76 77 81
42 41 89 89 83 77 74 72 73 75 77 80 80 77 76 76 78 81 80 77 72 70 68 68 71 71 71 71 72 73 74 75 69 59 52 39 39 64 71 74 74 78 82
49 51 85 88 85 80 75 72 72 71 69 71 72 71 73 76 77 78 76 75 71 69 68 69 69 69 69 71 74 79 78 76 73 63 54 41 54 67 71 73 74 75 76
69 65 70 84 83 80 76 70 68 70 70 69 68 66 66 69 71 71 69 73 73 69 64 63 65 67 69 69 74 78 76 75 75 67 58 44 63 72 71 72 74 71 71
56 56 48 48 63 71 72 68 65 68 68 66 65 62 62 62 61 63 62 65 66 66 64 65 66 65 66 68 71 72 69 66 62 55 62 54 68 75 76 74 73 70 68
54 50 43 39 39 41 47 61 63 63 61 60 61 59 55 52 51 53 52 52 57 62 63 64 69 66 63 64 64 61 58 53 46 48 43 61 71 74 74 76 74 70 69
58 42 44 42 36 34 38 49 51 54 52 52 48 50 47 33 33 38 44 51 55 60 61 59 63 65 60 57 58 55 51 43 57 52 41 58 69 72 73 73 73 74 71
82 53 52 48 37 37 45 41 35 41 37 40 39 39 38 33 32 39 39 47 51 53 52 54 55 55 52 37 44 48 41 54 68 57 52 57 66 69 70 72 73 72 70
155 111 81 75 56 56 49 49 38 33 34 34 35 35 39 37 31 32 31 32 35 42 39 42 44 39 40 39 38 39 45 57 61 53 49 56 64 67 66 67 69 69 68
116 133 106 95 78 68 63 55 51 43 42 39 32 34 43 42 36 31 35 27 31 31 36 38 43 43 46 46 47 46 47 49 54 48 48 53 58 62 62 62 62 62 67
113 111 109 103 105 86 74 61 59 48 48 49 46 37 49 54 44 38 36 37 35 33 36 40 44 46 45 47 48 49 48 50 51 48 42 49 52 56 54 54 56 56 61
122 130 112 104 104 95 85 79 63 52 53 55 49 41 48 54 52 50 43 37 34 34 37 45 50 52 47 49 48 47 46 47 49 49 43 40 45 48 47 48 49 50 58
154 133 132 128 101 98 93 86 73 56 59 54 46 43 50 57 58 56 52 41 25 34 49 52 48 51 52 49 44 41 44 44 43 43 41 39 36 40 43 45 45 46 52
124 116 139 123 111 107 98 86 77 64 62 54 46 44 52 58 64 63 53 37 25 43 52 58 50 58 50 46 42 36 38 42 41 43 44 40 37 31 33 41 41 41 46
143 131 109 104 117 112 98 83 73 64 59 50 45 41 47 58 64 69 58 38 38 51 50 60 53 61 60 49 51 44 34 36 34 44 45 41 39 34 29 33 36 38 39
116 114 104 98 107 107 96 82 66 55 45 44 42 37 50 56 60 66 60 44 49 59 54 59 65 55 58 46 59 49 35 32 35 39 41 40 35 35 32 32 29 30 34
98 103 108 113 116 119 113 105 90 61 33 34 35 40 51 59 65 71 63 52 55 65 66 72 80 69 49 36 61 43 29 36 41 35 34 38 33 29 33 34 30 28 22
128 131 123 131 139 135 118 118 119 115 85 63 26 34 39 57 68 82 80 69 65 72 64 60 72 80 46 36 74 77 30 10 17 28 29 35 26 22 30 31 27 27 20
145 165 155 153 136 117 101 96 83 63 45 33 24 19 11 43 71 78 87 84 74 83 86 68 72 93 92 36 48 102 116 179 338 357 22 28 18 21 17 20 27 22 18
191 153 129 128 121 116 119 118 127 130 142 200 225 19 5 38 72 82 90 91 86 81 85 78 77 90 110 89 41 43 91 146 139 353 351 8 13 21 11 14 14 14 14
158 145 143 128 120 121 121 128 122 118 137 112 72 65 37 29 50 68 86 89 89 84 90 82 74 73 92 114 108 88 68 54 80 128 329 339 355 356 0 3 6 7 6
135 140 140 135 137 138 130 130 135 135 131 120 112 110 50 25 32 55 84 83 90 91 98 101 92 86 82 90 88 95 120 126 143 127 148 309 329 326 342 356 8 3 3